P/2018 C1 ( Lemmon-Read )

Japanese version
Home page
Updated on May 21, 2018

---------------------------------------------------------------------

* Profile

Discovery Date February 4 and 9, 2018
Magnitude 19.1 mag, 19.1 mag
Discoverer Mt. Lemmon Survey, Mike T. Read (Spacewatch, Kitt Peak)

* Pictures

* Orbital Elements

Epoch 2018 Feb. 11.0 TT = JDT 2458160.5
T 2018 Feb. 25.46222 TT                                 MPCW
q   2.5958516            (2000.0)            P               Q
n   0.07486243     Peri.  234.29380     -0.81336345     -0.57483304
a   5.5756235      Node   270.45416     +0.55847438     -0.72844397
e   0.5344285      Incl.    5.13392     +0.16293024     -0.37274168
P  13.17
From 94 observations 2018 Jan. 16-Mar. 21, mean residual 0".4.

* Magnitudes Graph

        m1 = 13.5 + 5 log d + 10.0 log r

---------------------------------------------------------------------

The orbital elements are published on M.P.E.C. 2018-F152.
The magnitudes graphs are made with Comet for Windows.

---------------------------------------------------------------------

Copyright(C) Seiichi Yoshida (comet@aerith.net). All rights reserved.